| time (UTC) | temp C | wind direction | speed KPH | gust KPH | rain 1hr cm | rain 24hr cm | rain mn cm | humidity % | barometer mb |
| 20260503210012 | 21 | 292 | 40.2 | 40.2 | 0.00 | 0.00 | 0.00 | 40 | 88.8 |
| 20260503205012 | 21 | 338 | 33.8 | 33.8 | 0.00 | 0.00 | 0.00 | 40 | 88.8 |
| 20260503204011 | 21 | 338 | 40.2 | 40.2 | 0.00 | 0.00 | 0.00 | 39 | 88.8 |
| 20260503203012 | 21 | 292 | 48.3 | 48.3 | 0.00 | 0.00 | 0.00 | 39 | 88.8 |
| 20260503202011 | 21 | 270 | 37.0 | 37.0 | 0.00 | 0.00 | 0.00 | 39 | 88.8 |
| 20260503201012 | 22 | 292 | 35.4 | 35.4 | 0.00 | 0.00 | 0.00 | 37 | 88.8 |
| 20260503200012 | 22 | 292 | 35.4 | 35.4 | 0.00 | 0.00 | 0.00 | 37 | 88.8 |
| 20260503195011 | 21 | 270 | 32.2 | 32.2 | 0.00 | 0.00 | 0.00 | 38 | 88.8 |
| 20260503194012 | 21 | 292 | 46.7 | 46.7 | 0.00 | 0.00 | 0.00 | 37 | 88.8 |
| 20260503193011 | 21 | 292 | 43.5 | 43.5 | 0.00 | 0.00 | 0.00 | 38 | 88.8 |
| 20260503192012 | 21 | 292 | 45.1 | 45.1 | 0.00 | 0.00 | 0.00 | 38 | 88.8 |
| 20260503191011 | 21 | 292 | 35.4 | 35.4 | 0.00 | 0.00 | 0.00 | 38 | 88.8 |
| 20260503190012 | 21 | 292 | 37.0 | 37.0 | 0.00 | 0.00 | 0.00 | 38 | 88.8 |
| 20260503185012 | 21 | 292 | 41.8 | 41.8 | 0.00 | 0.00 | 0.00 | 37 | 88.8 |
| 20260503184011 | 21 | 270 | 27.4 | 27.4 | 0.00 | 0.00 | 0.00 | 37 | 88.8 |
| 20260503183012 | 20 | 315 | 35.4 | 35.4 | 0.00 | 0.00 | 0.00 | 38 | 88.8 |
| 20260503182012 | 20 | 292 | 38.6 | 38.6 | 0.00 | 0.00 | 0.00 | 39 | 88.8 |
| 20260503181011 | 20 | 292 | 41.8 | 41.8 | 0.00 | 0.00 | 0.00 | 39 | 88.8 |
| 20260503180012 | 20 | 315 | 38.6 | 38.6 | 0.00 | 0.00 | 0.00 | 40 | 88.8 |
| 20260503175012 | 20 | 292 | 33.8 | 33.8 | 0.00 | 0.00 | 0.00 | 40 | 88.8 |
| 20260503174011 | 20 | 292 | 27.4 | 27.4 | 0.00 | 0.00 | 0.00 | 41 | 88.8 |
| 20260503173012 | 19 | 292 | 33.8 | 33.8 | 0.00 | 0.00 | 0.00 | 41 | 88.8 |
| 20260503172012 | 19 | 292 | 20.9 | 20.9 | 0.00 | 0.00 | 0.00 | 42 | 88.8 |
| 20260503171011 | 18 | 270 | 19.3 | 19.3 | 0.00 | 0.00 | 0.00 | 42 | 88.8 |
| 20260503151011 | 15 | 270 | 25.7 | 25.7 | 0.00 | 0.00 | 0.00 | 57 | 88.8 |
| 20260503131012 | 12 | 225 | 19.3 | 19.3 | 0.00 | 0.00 | 0.00 | 60 | 88.8 |
| 20260503081011 | 6 | 270 | 11.3 | 11.3 | 0.00 | 0.00 | 0.00 | 55 | 88.8 |
| 20260503072011 | 7 | 270 | 11.3 | 11.3 | 0.00 | 0.00 | 0.00 | 57 | 88.8 |
| 20260503071011 | 7 | 270 | 9.7 | 9.7 | 0.00 | 0.00 | 0.00 | 58 | 88.8 |
| 20260503055011 | 7 | 270 | 9.7 | 9.7 | 0.00 | 0.00 | 0.00 | 52 | 88.8 |
| 20260503054011 | 7 | 270 | 8.0 | 8.0 | 0.00 | 0.00 | 0.00 | 52 | 88.8 |
| 20260503053012 | 6 | 270 | 11.3 | 11.3 | 0.00 | 0.00 | 0.00 | 52 | 88.8 |
| 20260503052012 | 4 | 270 | 8.0 | 8.0 | 0.00 | 0.00 | 0.00 | 53 | 88.8 |
| 20260503051012 | 3 | 270 | 6.4 | 6.4 | 0.00 | 0.00 | 0.00 | 52 | 88.8 |
| 20260503050012 | 3 | 270 | 6.4 | 6.4 | 0.00 | 0.00 | 0.00 | 52 | 88.8 |
| 20260503045012 | 3 | 270 | 6.4 | 6.4 | 0.00 | 0.00 | 0.00 | 57 | 88.8 |
| 20260503044012 | 3 | 270 | 0.0 | 0.0 | 0.00 | 0.00 | 0.00 | 54 | 88.8 |
| 20260503043012 | 3 | 270 | 8.0 | 8.0 | 0.00 | 0.00 | 0.00 | 52 | 88.8 |
| 20260503042012 | 3 | 248 | 0.0 | 0.0 | 0.00 | 0.00 | 0.00 | 64 | 88.8 |
| 20260503041011 | 4 | 270 | 0.0 | 0.0 | 0.00 | 0.00 | 0.00 | 61 | 88.8 |
| 20260503040012 | 4 | 270 | 0.0 | 0.0 | 0.00 | 0.00 | 0.00 | 60 | 88.8 |
| 20260503035012 | 5 | 248 | 1.6 | 1.6 | 0.00 | 0.00 | 0.00 | 56 | 88.8 |
| 20260503034010 | 5 | 112 | 0.0 | 0.0 | 0.00 | 0.00 | 0.00 | 56 | 88.8 |
| 20260503033012 | 5 | 270 | 4.8 | 4.8 | 0.00 | 0.00 | 0.00 | 51 | 88.8 |
| 20260503032012 | 6 | 270 | 8.0 | 8.0 | 0.00 | 0.00 | 0.00 | 51 | 88.8 |
| 20260503031011 | -17 | 0 | 0.0 | 0.0 | 0.00 | 0.00 | 0.00 | 100 | |
| 20260503030011 | 7 | 270 | 6.4 | 6.4 | 0.00 | 0.00 | 0.00 | 48 | 88.8 |
| 20260503025012 | 8 | 270 | 6.4 | 6.4 | 0.00 | 0.00 | 0.00 | 48 | 88.8 |
| 20260503024012 | 9 | 270 | 8.0 | 8.0 | 0.00 | 0.00 | 0.00 | 47 | 88.8 |
| 20260503023011 | 10 | 270 | 6.4 | 6.4 | 0.00 | 0.00 | 0.00 | 48 | 88.8 |
| 20260503022012 | 10 | 315 | 6.4 | 6.4 | 0.00 | 0.00 | 0.00 | 47 | 88.8 |
| 20260503021012 | 11 | 292 | 6.4 | 6.4 | 0.00 | 0.00 | 0.00 | 44 | 88.8 |
| 20260503020011 | 12 | 292 | 4.8 | 4.8 | 0.00 | 0.00 | 0.00 | 42 | 88.8 |
| 20260503015012 | 13 | 270 | 4.8 | 4.8 | 0.00 | 0.00 | 0.00 | 41 | 88.8 |
| 20260503014012 | 15 | 338 | 4.8 | 4.8 | 0.00 | 0.00 | 0.00 | 40 | 88.8 |
| 20260503013012 | 16 | 292 | 8.0 | 8.0 | 0.00 | 0.00 | 0.00 | 39 | 88.8 |
| 20260503012011 | 16 | 22 | 8.0 | 8.0 | 0.00 | 0.00 | 0.00 | 39 | 88.8 |
| 20260503011012 | 17 | 0 | 14.5 | 14.5 | 0.00 | 0.00 | 0.00 | 38 | 88.8 |
| 20260503010012 | 18 | 315 | 11.3 | 11.3 | 0.00 | 0.00 | 0.00 | 39 | 88.8 |
| 20260503004011 | 18 | 0 | 14.5 | 14.5 | 0.00 | 0.00 | 0.00 | 39 | 88.8 |
| 20260503003011 | 20 | 270 | 14.5 | 14.5 | 0.00 | 0.00 | 0.00 | 37 | 88.8 |
| 20260503002012 | 20 | 270 | 12.9 | 12.9 | 0.00 | 0.00 | 0.00 | 37 | 88.8 |
| 20260503001012 | 18 | 270 | 24.1 | 24.1 | 0.00 | 0.00 | 0.00 | 37 | 88.8 |
| 20260503000011 | 18 | 338 | 17.7 | 17.7 | 0.00 | 0.00 | 0.00 | 37 | 88.8 |
| 20260502235012 | 17 | 0 | 12.9 | 12.9 | 0.00 | 0.00 | 0.00 | 38 | 88.8 |
| 20260502234012 | 17 | 22 | 12.9 | 12.9 | 0.00 | 0.00 | 0.00 | 39 | 88.8 |
| 20260502233011 | 17 | 22 | 17.7 | 17.7 | 0.00 | 0.00 | 0.00 | 39 | 88.8 |
| 20260502232011 | 17 | 292 | 11.3 | 11.3 | 0.00 | 0.00 | 0.00 | 38 | 88.8 |
| 20260502231011 | 17 | 338 | 17.7 | 17.7 | 0.00 | 0.00 | 0.00 | 39 | 88.8 |
| 20260502230011 | 18 | 270 | 14.5 | 14.5 | 0.00 | 0.00 | 0.00 | 38 | 88.8 |
| 20260502225012 | 17 | 315 | 19.3 | 19.3 | 0.00 | 0.00 | 0.00 | 38 | 88.8 |
| 20260502224011 | 17 | 338 | 14.5 | 14.5 | 0.00 | 0.00 | 0.00 | 39 | 88.8 |
| 20260502223011 | 18 | 315 | 16.1 | 16.1 | 0.00 | 0.00 | 0.00 | 39 | 88.8 |
| 20260502222012 | 18 | 270 | 14.5 | 14.5 | 0.00 | 0.00 | 0.00 | 39 | 88.8 |
| 20260502221012 | 18 | 270 | 19.3 | 19.3 | 0.00 | 0.00 | 0.00 | 38 | 88.8 |
| 20260502220012 | 18 | 315 | 16.1 | 16.1 | 0.00 | 0.00 | 0.00 | 38 | 88.8 |
| 20260502214012 | 18 | 270 | 14.5 | 14.5 | 0.00 | 0.00 | 0.00 | 39 | 88.8 |
| 20260502213011 | 18 | 270 | 19.3 | 19.3 | 0.00 | 0.00 | 0.00 | 38 | 88.8 |
| 20260502212011 | 17 | 0 | 17.7 | 17.7 | 0.00 | 0.00 | 0.00 | 40 | 88.8 |
| 20260502211012 | 18 | 315 | 12.9 | 12.9 | 0.00 | 0.00 | 0.00 | 41 | 88.8 |